Location: Lecco
(45.8566°N, 9.3977°E)
Time: 08:07:06
(UTC+02:00)

A-11 Canister half - Pass Details

Date: 16 August 2020
Orbit: 1514 x 1686 km, 47.2° (Epoch: 21 September)

Event Time Altitude Azimuth Distance (km) Brightness Sun altitude
Rises 01:10:53 0° 292° (WNW) 4,871 11.9 -30.4°
Reaches altitude 10° 01:14:41 10° 280° (W) 3,903 11.2 -30.4°
Enters shadow 01:20:57 25° 241° (WSW) 2,924 10.2 -30.5°
